GFSGL_prec_cthk_093.txt.gz
RH
33 39 45 47 50 54 55 57 58 56 59 62 61 59 60 64 71 76 80 78 76 77 71 70 68 70 71 74 79 79 80 83 85 86 86 83 87 88 85 82 83 78 79
32 35 42 46 49 51 53 56 57 54 53 54 55 55 58 62 71 75 80 76 72 73 73 74 72 75 80 78 78 77 80 82 84 82 83 84 88 93 86 89 90 91 86
32 34 37 41 48 50 52 56 61 65 63 59 59 62 67 67 68 74 78 85 89 85 81 78 76 77 80 79 78 79 78 79 82 80 79 82 92 85 75 91 97 90 91
35 36 36 39 43 47 49 50 55 62 65 65 62 60 63 67 72 76 81 77 75 76 77 79 80 80 79 76 77 78 75 75 81 81 77 88 85 78 71 84 84 94 86
40 39 42 41 42 46 49 49 50 53 59 63 65 61 57 60 65 72 77 82 81 81 76 80 81 79 76 75 75 70 76 78 86 88 76 75 88 86 76 78 98 90 89
48 47 46 45 47 45 49 51 53 54 54 55 56 58 58 58 57 61 70 76 78 82 82 79 81 81 76 74 77 83 80 85 89 88 88 79 73 85 88 80 93 93 93
55 52 54 53 53 52 52 53 55 57 59 55 54 57 58 58 60 61 66 72 80 81 83 85 86 84 84 87 91 87 94 95 90 89 79 83 81 89 86 93 98 92 93
55 57 56 56 60 64 63 61 61 58 59 63 60 56 55 52 55 60 66 71 77 86 87 91 94 96 95 97 96 98 85 84 83 80 83 85 92 92 90 93 95 94 91
58 57 58 63 64 67 66 69 72 68 68 66 64 63 64 65 65 66 70 75 77 78 81 83 87 89 90 86 92 78 98 94 79 85 86 89 91 93 93 92 89 89 91
73 63 68 67 64 66 70 76 78 75 69 69 73 73 75 75 74 76 80 80 78 78 79 79 78 79 81 78 86 87 79 83 90 86 91 93 93 94 94 92 87 86 82
73 77 74 73 73 71 73 76 79 77 73 75 79 78 80 84 85 86 86 89 89 86 86 88 84 86 86 87 85 89 94 94 92 93 97 96 96 93 87 83 82 79 76
70 75 77 78 82 76 76 81 81 80 81 82 84 85 87 90 90 92 95 95 93 91 92 89 90 90 95 98 97 97 97 97 96 96 95 94 91 84 79 75 71 65 61
69 77 82 88 90 90 81 80 85 89 89 87 88 88 90 93 91 92 94 99 97 94 95 95 93 97 96 98 97 97 97 97 96 92 86 82 76 70 62 58 55 54 49
73 80 85 88 91 90 91 91 92 92 96 92 93 93 96 98 97 97 92 93 98 98 99 97 97 97 98 96 97 96 95 93 91 84 74 70 62 56 54 53 47 41 35
82 87 89 93 95 94 93 94 93 93 93 99 98 98 98 98 96 94 97 98 96 98 96 97 97 97 96 96 95 94 86 75 69 64 60 56 52 45 38 34 33 31 29
89 93 93 93 95 99 96 96 96 98 98 98 98 96 97 97 97 96 93 96 98 97 96 96 97 95 95 89 80 72 68 61 53 47 41 37 34 32 29 27 26 25 24
90 92 95 97 98 98 98 98 98 99 98 98 97 97 97 97 95 98 97 96 93 96 95 96 94 84 74 67 59 53 48 43 40 37 34 34 31 28 25 23 23 23 23
82 90 87 93 94 97 97 98 97 97 97 96 97 97 96 97 97 95 95 95 97 95 86 76 69 62 56 52 47 42 38 35 34 32 29 26 24 23 22 22 24 24 25
78 80 90 90 91 97 99 97 96 97 97 94 95 98 96 96 98 94 91 82 71 65 59 55 52 48 44 40 38 34 31 29 27 26 24 23 22 22 23 24 25 26 27
82 80 84 89 87 89 94 96 96 96 96 94 95 95 94 94 84 70 62 57 54 50 46 42 39 37 35 33 29 26 26 25 23 22 21 21 21 22 23 24 26 28 32
80 80 83 89 87 85 87 88 88 90 93 92 89 84 69 61 57 52 48 45 43 42 39 36 34 31 29 27 25 24 23 22 21 20 20 22 22 23 25 29 32 36 40
88 90 90 90 92 92 92 91 92 91 86 79 70 62 55 51 48 46 44 42 38 35 32 30 28 27 27 26 24 23 22 21 20 21 22 23 25 28 32 35 39 43 48
96 96 95 96 95 96 92 85 76 67 61 56 53 53 51 47 45 41 37 34 31 30 29 29 28 27 26 24 22 21 20 19 20 22 25 27 30 34 37 41 45 49 54
96 96 96 93 86 74 69 67 64 60 57 55 52 48 42 35 33 32 31 31 30 29 27 26 25 24 22 21 19 18 20 21 24 26 28 32 36 39 44 48 52 57 61
83 77 72 68 66 63 61 58 58 56 53 48 45 42 38 37 34 32 32 30 28 28 26 24 22 20 19 18 18 19 22 24 27 30 33 36 41 45 50 53 58 64 72
73 70 68 67 62 58 56 51 50 49 47 44 41 38 37 35 32 30 29 28 27 25 23 21 19 18 19 19 20 21 23 27 31 34 36 41 45 50 55 60 66 72 78

GFSGL_prec_cthk_096.txt.gz
RH
27 31 37 43 48 51 55 60 63 67 78 83 84 83 93 90 86 86 88 88 88 93 92 91 94 88 80 74 72 74 77 84 86 76 78 80 84 85 83 86 86 87 93
27 30 36 43 47 48 52 56 58 56 57 65 66 64 68 69 72 75 78 82 86 86 87 86 88 91 82 72 73 74 80 84 84 79 78 79 81 83 84 83 79 88 87
28 31 34 39 47 50 55 58 61 63 59 55 55 57 57 60 64 70 74 76 77 78 79 79 82 81 80 78 79 82 85 84 83 82 82 80 79 82 79 79 78 84 81
32 31 35 37 41 48 53 57 61 65 67 66 65 59 61 61 61 65 68 71 76 79 82 81 82 84 84 84 83 83 85 85 82 82 83 80 81 79 82 85 76 75 88
43 37 39 40 39 42 47 54 55 57 62 67 68 65 61 60 61 63 65 71 73 72 77 85 89 88 87 85 88 88 88 85 84 82 79 80 82 92 89 92 79 74 72
51 46 43 42 45 45 45 49 54 55 56 58 61 65 65 63 62 60 62 65 72 77 83 86 86 84 81 81 86 86 86 88 84 84 89 97 94 91 94 84 75 72 73
64 58 54 52 49 51 53 51 51 54 57 57 59 59 58 60 62 63 65 66 65 67 77 82 82 83 88 92 89 88 89 89 91 92 98 96 91 84 98 81 73 78 82
70 66 63 62 67 64 60 58 56 57 58 61 61 60 60 58 60 63 65 64 61 62 66 69 78 88 89 90 91 93 96 96 96 95 91 86 89 98 95 82 81 81 83
79 73 71 73 70 72 70 67 67 66 66 68 65 66 66 63 61 62 66 67 66 68 69 70 75 80 84 81 83 82 84 81 79 78 87 87 92 82 83 88 85 86 86
64 73 80 75 75 72 73 76 80 78 76 71 76 74 71 72 73 73 71 71 74 72 73 79 82 82 82 75 72 90 84 77 80 88 98 97 98 92 92 91 89 87 86
52 60 70 78 83 84 85 86 82 82 83 87 87 87 81 78 80 83 84 84 83 87 88 89 87 88 90 93 98 89 98 92 96 98 97 98 98 97 93 89 84 80 78
55 52 58 69 77 84 86 90 93 91 88 86 86 89 89 84 84 88 89 91 90 91 91 93 98 98 98 96 91 93 95 95 97 98 96 97 96 90 86 82 75 68 65
60 59 57 60 67 74 87 93 97 95 94 94 90 88 92 90 93 91 95 97 92 96 95 92 95 96 98 96 97 97 94 97 97 96 96 90 82 72 66 62 54 45 39
66 64 67 67 70 74 80 89 95 97 98 97 98 98 92 94 97 98 96 96 97 98 98 98 97 97 96 96 97 97 96 96 93 84 75 67 61 54 47 41 36 33 31
72 75 76 77 80 81 82 85 90 94 95 94 93 94 92 92 93 97 98 97 97 97 97 97 97 97 96 95 97 95 90 80 67 60 53 48 43 41 40 36 33 28 24
74 79 81 83 86 87 88 91 90 95 95 98 91 97 99 93 93 93 97 98 96 96 97 97 97 95 96 95 80 69 60 53 50 49 46 44 40 35 30 25 22 21 20
67 74 81 85 86 85 84 87 89 96 97 96 97 96 97 98 98 97 96 96 96 96 97 96 95 91 83 73 65 56 51 47 43 40 36 32 26 22 21 20 20 20 21
71 70 73 79 90 86 84 85 87 86 90 92 95 96 96 97 98 96 97 97 96 96 94 84 73 65 57 54 50 46 41 37 30 25 23 23 22 21 20 20 20 21 21
72 70 75 75 80 80 77 82 87 91 89 92 96 95 96 97 96 97 96 94 81 69 62 55 51 48 43 38 33 30 26 23 22 22 21 21 22 23 23 23 22 23 23
72 71 73 72 71 79 73 75 83 91 92 95 95 97 95 95 90 76 66 59 55 50 49 47 42 38 34 29 26 24 23 22 21 21 22 24 23 22 22 23 24 26 28
74 75 78 75 77 81 84 81 83 85 88 90 94 92 81 68 63 60 55 51 48 45 43 38 34 31 29 26 24 22 20 22 23 23 22 22 23 24 24 26 28 30 31
84 83 84 86 87 91 94 94 92 92 92 84 70 62 57 51 48 48 46 44 41 36 34 31 28 26 25 24 23 23 23 23 22 23 24 24 24 24 26 29 31 34 36
87 88 89 94 97 96 96 95 87 79 70 63 58 54 52 50 48 47 45 41 37 33 30 28 26 25 24 24 23 24 23 23 23 23 24 25 25 28 31 32 34 37 41
89 93 94 97 92 86 77 70 67 63 59 57 56 54 51 47 43 41 40 38 35 33 31 29 27 26 24 24 23 22 21 20 22 24 24 25 28 31 33 35 39 43 46
92 88 82 76 72 68 67 67 65 60 57 54 51 48 46 44 43 41 38 36 34 31 29 27 26 25 23 21 20 19 20 22 22 24 27 29 30 33 37 40 44 48 54
81 80 79 75 71 68 63 59 57 56 53 51 48 46 44 42 40 38 36 34 32 30 28 25 23 21 20 19 18 19 21 23 25 28 29 30 33 37 41 46 50 55 60

GFSGL_prec_cthk_099.txt.gz
RH
27 26 30 36 40 44 50 57 63 72 82 90 94 95 93 94 94 95 95 95 93 92 93 91 88 89 89 89 90 94 93 90 83 75 73 78 82 80 81 81 83 85 88
29 28 29 35 39 42 46 52 55 62 66 73 81 84 87 95 95 94 95 95 92 91 92 91 91 93 93 93 90 86 83 80 77 69 75 79 84 82 81 82 83 82 85
34 29 30 32 38 43 46 48 52 54 57 61 65 67 68 76 78 80 82 81 79 79 84 86 89 91 92 93 92 88 81 75 75 78 76 82 82 82 82 83 84 80 83
43 35 31 31 34 38 44 51 54 58 61 60 57 58 61 62 67 67 71 75 77 76 79 81 84 86 86 87 88 87 81 82 84 85 85 86 84 83 83 83 79 82 85
57 45 36 34 35 37 40 46 53 55 58 63 64 62 64 62 61 66 71 74 75 77 82 86 86 86 87 88 88 90 92 89 89 88 87 88 87 87 87 87 84 94 96
68 62 58 51 46 41 42 44 48 55 57 58 59 60 64 64 61 61 66 69 68 68 73 78 79 84 85 85 93 95 94 93 90 89 92 89 90 94 89 90 91 98 98
80 75 68 64 58 58 51 49 50 51 58 60 59 58 57 59 61 61 62 64 65 66 67 69 73 76 78 82 85 85 85 85 84 88 90 88 90 91 96 98 98 95 95
87 84 81 77 72 71 65 62 57 61 60 62 63 63 62 60 60 62 63 62 62 61 62 62 65 66 69 75 78 81 82 85 90 90 89 92 94 96 94 98 99 86 87
79 82 83 81 80 78 79 81 78 72 67 66 65 68 68 68 71 70 72 72 71 69 68 67 64 64 67 69 72 75 79 82 85 94 88 98 84 99 90 78 84 96 95
67 70 67 68 73 76 80 81 84 87 87 80 77 75 77 78 77 79 78 75 74 74 75 74 74 75 73 76 78 76 75 85 80 83 91 85 83 91 92 97 97 96 96
62 61 61 63 62 65 75 85 87 90 92 93 93 94 92 86 85 87 82 81 82 83 84 84 79 80 81 85 87 87 90 87 90 88 93 98 94 93 92 96 97 97 93
69 69 66 64 59 56 64 74 84 88 89 90 94 97 95 95 95 93 97 91 88 86 86 87 89 89 92 96 95 94 94 98 97 96 97 97 97 97 97 94 82 75 68
69 63 64 63 62 59 58 64 72 81 86 89 91 91 95 98 93 95 98 98 94 90 88 93 98 99 94 96 97 95 95 97 96 98 95 96 96 86 76 67 61 56 52
70 71 70 68 67 65 66 65 72 79 82 83 85 87 86 90 93 95 99 97 99 95 94 97 97 97 97 98 97 97 96 98 95 95 90 77 67 60 54 51 48 45 43
66 69 70 72 74 73 68 69 73 77 80 89 84 92 97 96 85 89 90 92 96 99 96 97 98 97 97 97 97 95 96 87 74 64 62 57 53 51 50 48 43 36 28
61 61 61 65 72 74 77 78 80 81 83 85 85 87 95 88 94 97 96 96 96 97 97 98 97 96 96 96 93 78 75 71 63 58 53 51 46 40 32 28 25 19 17
64 61 60 63 66 70 75 76 76 81 82 85 86 89 88 94 95 96 98 96 97 97 95 97 98 96 96 84 72 64 60 55 49 42 38 34 29 21 19 19 18 17 18
68 66 65 66 66 65 65 69 79 82 81 83 88 88 87 86 89 90 93 94 94 93 97 96 90 79 67 60 54 50 46 43 38 34 29 23 20 19 19 19 19 19 20
63 60 61 64 64 66 66 68 69 71 76 77 86 87 90 92 90 93 93 97 94 85 75 65 58 53 50 48 46 42 38 36 32 26 22 21 20 19 20 21 22 22 23
69 67 65 66 67 68 67 66 65 64 67 73 77 87 94 96 97 92 83 74 67 65 62 55 53 50 47 42 38 35 32 28 24 22 21 21 22 23 24 24 24 24 24
68 69 70 70 69 72 71 74 74 75 76 78 84 86 89 77 69 65 61 55 52 50 48 47 44 41 38 36 34 32 29 26 24 23 24 26 26 26 26 25 25 24 24
69 72 75 75 77 79 82 83 84 86 88 86 77 70 65 61 59 55 54 53 51 48 45 42 40 39 37 35 33 31 29 27 26 27 28 27 26 25 25 25 25 26 28
73 74 76 78 81 82 85 87 89 83 75 66 65 63 59 56 54 53 53 49 46 44 43 42 40 38 36 35 32 30 29 28 27 26 26 25 23 24 25 27 29 31 33
83 84 85 86 84 81 79 75 70 66 64 63 62 62 59 55 54 51 47 46 45 44 43 41 38 36 34 33 30 29 26 25 23 22 22 22 23 25 27 31 33 36 37
87 87 84 80 75 70 68 68 70 70 67 65 59 57 55 54 50 48 47 46 45 43 41 39 37 35 32 30 27 24 21 19 19 20 21 23 26 28 31 35 38 39 40
80 81 83 82 79 74 70 68 66 62 59 57 57 56 53 49 47 47 45 44 42 40 38 36 33 31 27 23 21 19 18 19 20 21 23 26 28 31 34 38 40 43 46

GFSGL_prec_cthk_102.txt.gz
RH
50 34 25 28 35 39 44 47 50 59 71 81 85 90 93 95 95 94 95 95 93 94 95 95 94 94 93 93 92 91 91 93 93 95 87 83 83 81 81 81 80 80 81
47 32 26 29 34 38 43 47 49 51 53 68 82 87 89 90 93 93 92 93 93 95 95 96 95 94 92 93 93 91 90 91 94 91 91 88 82 79 77 82 88 86 85
51 35 29 32 34 39 43 48 51 53 55 56 60 69 72 73 85 92 91 90 92 93 92 91 91 93 94 93 92 92 91 92 91 92 85 84 81 80 80 86 88 88 88
60 46 35 33 34 39 45 49 52 55 57 61 60 60 63 65 74 81 82 81 82 83 82 83 85 86 89 93 95 96 94 94 92 91 89 81 78 79 83 86 89 91 91
68 58 49 40 35 38 41 47 52 55 55 57 61 63 62 66 67 71 73 74 78 83 83 83 82 84 88 92 94 95 93 94 93 93 90 90 84 84 86 88 89 92 90
74 70 65 59 49 43 41 44 48 53 55 56 57 60 61 61 65 68 73 74 74 76 79 79 82 84 86 90 91 87 87 90 90 92 95 94 93 93 93 91 93 95 88
85 83 78 71 66 62 57 49 47 49 53 56 58 60 61 61 60 61 61 62 66 69 70 72 73 74 78 81 80 81 82 84 86 91 92 90 90 89 90 92 95 99 94
92 90 90 84 78 78 76 71 64 57 54 57 59 61 62 63 65 67 69 66 61 57 58 62 65 68 70 70 70 72 74 75 77 81 84 85 86 86 92 95 97 97 95
86 86 89 89 85 82 82 80 76 72 70 67 58 62 66 66 69 71 74 74 73 70 65 63 63 62 64 66 66 67 69 68 68 72 77 81 88 91 90 96 97 93 94
87 86 88 87 85 78 76 78 79 82 83 84 85 82 73 68 69 74 80 82 80 79 79 78 76 75 76 76 75 73 73 73 73 72 74 79 81 82 92 90 96 98 93
78 78 74 74 72 70 69 70 72 79 85 86 87 89 89 91 87 80 79 82 86 89 89 87 86 85 84 83 85 84 86 86 84 87 89 88 94 95 96 98 97 97 96
72 69 66 65 66 67 65 65 63 63 74 79 83 86 87 90 93 95 97 98 95 93 97 94 89 86 90 91 91 95 93 92 94 95 96 97 97 96 96 96 90 84 77
70 64 66 65 65 64 60 59 63 65 67 68 74 78 79 82 83 85 87 91 93 97 98 98 97 98 99 98 91 95 96 98 98 98 96 97 96 93 86 75 71 64 60
61 63 63 65 67 68 66 67 69 69 71 73 78 76 79 82 81 85 97 97 98 97 97 97 98 98 97 98 98 97 97 97 97 97 95 86 78 72 64 62 58 55 53
59 56 58 62 64 69 71 72 73 74 76 76 78 82 81 79 93 96 93 94 94 97 98 96 96 97 97 97 97 96 96 96 86 84 77 72 66 62 56 52 48 42 36
67 64 63 59 61 64 66 68 74 79 82 85 85 83 83 81 80 81 80 83 91 97 92 91 94 95 96 96 95 90 88 84 77 69 63 55 51 49 44 39 37 34 29
71 67 65 66 64 60 62 62 67 71 73 75 81 81 80 79 82 82 83 84 84 84 85 89 93 95 96 91 87 76 69 63 60 54 51 47 43 40 36 33 30 23 20
72 69 66 65 65 63 64 63 64 66 65 69 73 77 78 80 81 84 87 88 87 86 86 89 90 85 76 69 63 56 54 52 50 47 43 40 36 33 30 25 22 22 22
68 65 62 61 61 62 63 64 64 63 63 60 62 65 66 70 75 76 80 82 82 76 74 72 66 63 62 58 55 52 49 45 43 40 36 34 32 30 28 26 26 25 25
65 67 67 69 68 68 68 68 68 68 66 65 65 69 70 70 71 75 74 69 64 60 63 60 57 54 52 50 47 44 43 41 39 37 35 34 32 31 30 28 27 27 26
62 63 65 66 67 67 68 71 75 75 74 76 75 75 72 61 55 55 54 54 54 55 55 53 52 51 50 46 44 43 41 40 37 34 32 32 32 31 29 29 28 26 25
64 65 67 68 68 70 71 73 76 77 77 75 69 63 60 57 56 58 56 55 52 52 53 52 49 47 46 45 44 41 39 37 34 33 32 32 32 31 29 27 25 26 26
71 72 74 74 76 76 78 78 74 67 62 59 58 59 61 62 62 61 60 58 53 50 49 47 46 46 45 44 42 38 37 35 33 33 32 32 30 27 24 25 26 28 29
76 78 79 80 81 79 74 68 64 64 65 62 60 62 62 60 57 55 54 54 52 49 46 46 45 44 42 39 38 37 35 34 33 32 31 28 24 23 24 26 28 30 33
83 83 79 73 69 68 66 66 67 69 72 70 66 63 59 57 57 56 54 52 49 48 47 46 46 43 40 38 37 35 34 32 29 27 24 23 24 25 26 28 30 33 36
79 80 80 78 74 72 70 66 63 62 64 65 62 60 58 57 54 51 49 48 47 46 45 44 42 40 39 37 35 32 29 25 22 21 22 24 26 27 28 30 32 34 37

GFSGL_prec_cthk_105.txt.gz
RH
64 65 62 43 26 33 38 42 48 53 56 66 77 88 91 94 96 97 97 96 90 95 96 95 98 95 94 90 85 92 95 93 90 87 86 89 91 89 89 85 85 84 83
65 65 57 36 29 36 40 43 47 50 53 54 66 80 88 92 94 97 98 98 96 96 96 94 95 97 95 91 91 93 94 93 91 86 91 92 93 92 91 88 87 85 84
66 59 53 34 32 39 43 46 49 50 55 55 57 64 73 79 77 84 90 94 93 95 93 95 96 96 96 94 94 94 92 93 94 93 92 93 96 96 94 91 88 87 86
67 60 50 35 34 39 44 48 51 53 55 58 60 58 59 61 60 72 81 85 81 81 85 86 88 91 91 89 90 91 93 94 95 96 96 93 93 95 94 93 91 92 90
72 64 55 40 37 38 43 47 50 52 54 55 57 58 58 60 61 63 68 69 72 77 79 83 84 84 83 86 89 92 94 97 96 97 95 96 97 95 95 95 97 98 97
77 74 70 52 43 41 42 46 49 51 55 55 55 56 57 59 60 64 67 73 75 77 79 80 82 84 85 88 90 90 91 93 92 95 93 91 95 93 92 94 98 99 99
88 86 83 78 66 55 48 45 46 49 51 55 57 57 58 60 62 60 63 64 70 73 75 80 84 85 88 88 90 90 90 91 92 93 89 93 91 94 97 97 97 97 92
94 91 90 86 81 76 72 66 63 58 53 52 52 55 60 63 65 65 66 65 66 66 67 69 71 76 78 83 84 85 85 86 87 86 85 84 86 90 92 92 94 94 93
94 91 96 95 89 83 81 80 81 81 77 74 68 62 58 60 67 70 71 68 67 69 72 74 75 76 74 79 82 82 82 80 76 75 75 78 83 85 84 84 82 85 87
94 95 95 86 84 86 86 86 84 85 86 88 83 79 78 76 75 75 78 79 80 79 76 78 81 85 86 85 84 83 82 81 82 82 85 87 82 83 85 87 88 98 98
98 95 89 84 82 80 81 78 76 78 80 80 80 83 85 86 88 91 92 93 90 83 87 91 91 90 91 91 91 89 92 91 91 93 93 99 97 97 94 98 94 97 97
84 83 83 83 83 78 73 71 70 71 72 75 75 74 75 82 88 91 94 96 98 99 99 97 98 98 98 99 99 99 98 99 98 96 95 94 94 96 98 98 96 91 86
80 77 74 71 68 69 68 67 68 69 71 67 69 71 71 72 76 81 85 86 87 91 95 92 95 96 95 98 98 98 98 97 97 98 97 97 96 97 89 85 78 75 74
65 65 64 66 65 62 63 65 68 70 70 69 69 71 72 74 74 78 79 82 83 91 91 86 94 98 98 98 97 96 95 97 97 97 96 95 88 85 82 76 71 65 60
66 60 57 59 63 63 63 65 66 67 71 73 75 76 77 78 80 76 79 97 85 83 88 93 90 85 87 92 96 91 91 92 93 93 86 84 78 70 64 61 57 52 49
70 66 64 63 58 57 58 64 67 69 71 72 75 78 81 81 81 83 83 81 80 79 79 79 79 80 81 83 86 88 90 89 86 78 73 68 62 56 53 52 51 47 43
76 73 70 68 64 61 61 63 62 62 64 67 71 73 74 73 77 77 79 78 78 82 78 80 82 82 85 87 82 78 72 68 66 62 59 55 52 52 50 46 43 39 37
73 70 64 61 61 60 57 56 57 58 57 59 60 61 63 64 68 71 75 75 76 77 76 75 75 70 64 59 56 59 59 55 52 50 49 46 44 42 39 37 36 35 33
66 67 67 68 64 62 62 61 61 62 61 61 63 61 60 62 64 65 67 72 73 71 63 58 59 57 54 52 53 53 51 50 49 47 44 43 41 38 37 36 35 33 31
62 59 58 59 62 62 62 62 62 61 62 64 65 65 67 67 70 70 69 63 61 57 54 52 51 49 48 48 49 50 49 46 45 44 43 42 40 38 37 36 34 32 30
62 64 63 63 63 63 63 63 65 66 67 70 71 71 66 61 56 54 52 52 53 53 52 52 51 50 50 50 47 47 47 46 44 42 40 38 37 36 35 34 32 31 30
66 67 67 68 69 69 69 70 71 71 72 69 63 61 58 55 53 55 56 55 54 56 56 55 54 53 52 52 48 45 46 44 42 41 38 37 37 36 35 34 32 30 29
70 71 71 72 74 75 75 74 69 64 59 57 55 53 53 52 52 56 60 59 57 55 55 55 54 52 49 47 46 44 43 41 39 38 37 37 35 34 32 30 28 28 26
74 75 76 77 78 76 69 62 60 59 59 59 58 57 57 57 55 54 54 55 56 55 54 53 51 48 46 46 45 43 40 40 38 37 36 35 33 30 28 26 24 24 25
79 79 79 75 71 67 64 65 65 65 64 63 61 60 58 56 53 54 55 56 55 53 50 47 46 45 45 44 42 40 39 37 36 35 34 31 28 25 23 22 24 25 27
76 75 72 73 75 74 75 74 70 66 64 62 62 61 58 56 55 53 52 50 49 48 47 46 45 44 43 41 40 38 37 35 33 30 25 23 22 22 23 25 27 29 32

GFSGL_prec_cthk_108.txt.gz
RH
44 54 63 69 73 71 44 30 35 39 46 55 64 74 83 86 90 92 92 94 96 98 98 95 94 98 92 88 87 88 88 85 87 89 93 94 91 94 84 85 88 87 88
47 58 69 74 75 65 35 33 36 40 46 49 52 62 78 86 89 94 97 99 99 99 96 96 94 96 99 93 95 93 94 90 89 89 92 97 91 92 92 93 89 93 87
56 64 73 77 75 53 33 36 38 41 46 47 52 59 69 82 87 88 92 99 99 98 95 92 92 95 98 96 96 95 94 92 89 93 94 96 98 94 94 92 95 95 94
72 73 78 80 71 43 35 38 43 44 49 51 52 54 58 60 65 67 76 89 95 97 98 97 94 94 96 96 97 96 94 93 90 93 94 95 97 97 95 97 96 98 97
76 80 82 83 60 41 39 41 45 48 51 54 55 57 57 58 60 62 68 70 76 80 82 85 86 87 91 90 93 92 89 89 91 93 94 95 96 96 98 98 98 98 98
85 85 87 80 49 43 40 44 46 48 52 55 57 54 57 56 56 58 64 71 70 72 74 75 75 77 79 80 82 84 84 88 89 93 95 95 96 97 99 97 99 98 98
92 93 91 72 51 45 42 46 47 49 51 54 57 56 56 57 57 57 57 58 62 66 70 71 73 76 79 80 82 84 86 88 90 93 94 96 96 96 97 95 98 98 97
98 95 93 85 71 56 49 47 48 49 51 53 55 56 57 58 59 60 61 62 63 63 65 67 69 70 71 74 77 78 79 82 85 89 90 91 92 95 94 94 94 92 91
96 96 93 90 87 81 76 72 67 65 62 63 62 59 60 61 64 66 67 67 69 71 72 72 73 75 75 79 83 84 83 81 79 78 78 79 81 84 85 85 85 85 86
98 99 99 96 93 91 89 86 82 83 84 83 84 84 84 82 81 80 79 80 82 85 87 86 86 85 85 85 87 86 86 86 84 84 86 88 89 90 89 89 90 92 94
96 95 96 98 95 94 91 89 89 89 89 88 87 88 87 86 87 90 90 89 91 91 91 91 90 93 95 96 96 98 98 98 98 99 98 98 97 97 96 97 97 97 97
98 100 96 91 91 88 85 87 85 82 86 84 81 82 81 83 83 84 90 94 97 98 97 98 99 98 99 99 98 98 98 98 97 98 98 98 98 97 97 97 97 97 97
97 98 94 92 88 86 85 85 83 82 82 82 82 81 81 78 76 78 80 82 86 89 89 89 90 95 97 96 98 99 96 97 98 98 97 96 96 96 96 96 95 92 89
86 84 81 79 77 73 71 69 72 75 78 77 78 79 81 78 75 75 78 80 80 81 79 82 93 98 89 92 94 93 93 96 94 94 93 95 92 88 88 89 84 76 72
81 75 69 68 67 69 73 72 70 69 71 75 80 82 81 77 77 77 80 82 85 83 81 85 82 81 91 92 86 85 87 88 87 86 87 83 81 75 69 66 64 62 59
84 79 74 69 65 63 63 62 67 68 72 74 74 75 76 77 78 79 83 81 83 84 84 79 78 79 80 80 81 83 84 84 80 75 68 63 62 60 57 56 55 52 49
81 79 75 72 69 69 66 63 64 65 66 66 67 67 69 71 69 69 68 69 69 74 76 75 75 76 78 76 76 75 71 68 61 57 53 50 50 50 48 46 46 44 42
80 80 74 71 70 69 69 69 67 65 64 63 63 63 64 63 62 63 64 65 65 67 67 70 70 69 69 63 56 51 47 50 50 48 44 42 43 46 44 43 42 43 44
66 66 67 67 66 64 63 63 63 61 59 58 57 57 58 59 58 59 60 60 61 62 63 61 57 52 49 48 47 49 48 45 44 45 43 44 44 43 42 42 41 39 40
61 61 61 62 61 61 60 59 58 57 58 58 60 60 61 61 61 61 58 55 53 54 55 53 49 46 45 45 45 44 44 45 47 48 48 47 45 43 42 43 42 46 39
64 64 63 61 63 62 61 61 61 61 62 64 64 62 60 56 52 49 47 46 45 43 45 45 46 46 47 47 47 47 50 52 51 48 48 47 45 44 43 40 40 37 36
68 67 65 65 65 65 65 67 67 68 66 61 57 53 51 49 47 46 45 45 46 46 45 46 49 48 46 47 48 50 50 49 47 46 46 45 43 42 40 39 38 37 35
68 69 69 69 69 70 71 71 68 63 57 54 53 49 46 46 45 46 47 48 50 51 49 47 46 46 47 47 47 47 46 45 45 44 44 43 42 41 39 37 36 35 33
73 74 75 73 74 74 69 63 59 56 56 56 54 52 52 52 52 52 52 51 48 48 48 48 47 47 46 45 44 44 44 43 43 42 41 40 39 38 36 35 33 30 27
79 78 77 75 72 69 66 63 61 60 58 55 55 56 57 56 55 54 53 53 53 53 51 50 48 46 45 44 44 44 43 42 41 40 39 38 36 34 31 28 25 24 23
74 73 70 69 69 68 67 67 67 66 64 60 59 59 60 60 59 58 56 55 53 51 49 46 44 43 43 43 42 41 40 40 39 38 36 33 29 26 24 23 24 25 27

GFSGL_prec_cthk_111.txt.gz
RH
33 33 35 44 50 57 58 61 63 50 38 36 39 49 60 75 80 78 83 82 87 89 90 98 99 98 97 97 95 96 92 87 85 90 96 93 91 91 86 97 94 89 85
38 40 37 46 52 61 62 63 59 48 38 38 44 49 52 62 81 90 89 91 93 90 88 95 99 99 98 97 95 98 91 92 95 92 92 93 89 89 93 95 96 95 89
45 45 45 50 58 64 67 65 51 52 38 38 43 45 49 61 72 86 91 94 97 99 98 98 97 98 98 97 97 97 94 92 91 89 90 95 92 90 89 97 96 94 92
54 52 51 58 64 68 73 63 53 52 39 39 42 46 50 59 66 73 79 85 94 97 98 99 99 99 98 96 96 96 96 94 94 94 96 91 89 93 94 96 98 96 94
65 60 61 68 71 75 74 58 59 48 42 44 44 49 48 49 53 57 60 68 76 91 96 98 99 98 98 98 96 97 98 98 97 96 95 90 88 90 92 95 96 96 95
74 68 69 76 79 82 72 62 60 46 45 49 48 50 50 50 50 53 57 63 66 67 73 78 83 85 86 86 86 88 90 91 89 87 88 84 86 89 94 96 97 98 97
86 81 78 78 81 81 70 65 56 48 49 52 52 53 52 50 50 52 54 59 63 66 68 71 74 73 74 77 77 78 81 81 82 83 82 84 86 89 93 97 98 98 98
92 90 86 86 90 83 70 61 54 52 52 52 53 56 56 53 54 56 57 58 59 62 63 64 66 68 70 72 73 72 73 76 76 77 78 78 81 86 89 92 94 94 94
96 92 92 93 89 84 68 58 56 54 55 55 55 56 57 57 57 59 61 61 61 62 65 66 66 67 70 71 74 74 76 78 82 84 84 85 86 88 90 90 90 92 92
98 98 97 94 94 88 67 60 58 59 57 55 56 55 55 59 61 66 68 68 70 70 75 76 79 79 80 83 84 85 86 87 90 91 93 96 96 95 96 98 98 99 98
99 99 98 99 98 97 93 82 79 79 81 83 85 83 83 82 82 84 83 86 85 84 83 83 87 90 91 90 92 95 96 97 97 98 97 98 98 98 99 99 98 99 98
98 98 99 97 98 99 98 98 95 90 86 95 93 93 90 91 92 92 90 87 86 86 89 97 98 98 95 96 98 98 97 98 98 98 98 99 98 98 98 98 97 97 97
99 98 98 99 98 99 98 99 97 94 94 93 93 92 94 92 88 86 87 86 83 81 82 82 87 96 92 95 98 99 99 98 99 99 98 96 96 97 97 94 94 94 95
96 96 97 97 97 99 98 96 97 97 96 97 94 92 94 93 90 90 88 83 83 82 84 79 93 77 80 80 84 87 93 95 94 94 94 94 89 89 92 89 85 79 75
85 85 83 84 84 87 84 83 84 84 87 88 88 90 89 88 86 85 83 84 86 83 84 82 84 83 94 91 84 84 86 83 85 86 89 87 85 83 76 70 65 59 55
89 88 80 74 71 73 76 79 82 84 83 82 80 80 81 84 85 85 87 84 83 83 83 82 83 83 82 81 79 79 78 79 79 79 77 72 65 60 54 49 47 47 46
88 86 85 83 81 77 75 73 74 73 73 74 76 76 78 75 72 74 73 72 73 73 70 69 70 70 70 71 71 71 70 67 65 62 55 48 45 45 46 45 44 45 45
77 82 82 79 78 79 78 76 75 74 73 72 72 70 68 66 65 64 63 64 63 62 62 62 63 63 65 67 66 64 60 52 49 48 48 46 47 46 47 48 47 47 47
66 68 70 72 73 72 73 75 73 72 70 69 68 65 64 63 61 60 59 61 62 63 63 63 63 63 62 59 55 52 49 47 44 44 43 44 45 46 45 42 42 42 44
66 66 65 64 65 65 64 64 62 62 62 61 60 61 61 61 61 61 61 61 62 59 57 54 53 54 53 47 43 41 40 38 39 42 45 49 49 48 45 46 49 50 49
67 66 65 63 63 63 62 61 61 61 61 61 61 62 62 63 62 60 60 57 54 49 46 45 45 48 50 50 49 46 46 46 47 48 48 45 47 48 46 45 48 46 43
69 71 70 69 69 68 67 67 66 65 62 60 59 54 53 55 53 52 50 49 47 47 46 45 45 46 48 48 46 43 42 44 46 44 41 42 46 43 45 45 47 48 47
69 69 69 70 70 71 72 72 71 71 68 65 63 61 57 55 53 52 50 46 42 41 42 43 44 43 42 43 45 49 48 44 43 42 44 45 48 50 46 49 46 42 43
80 79 80 79 78 77 77 72 70 69 65 64 62 60 58 55 54 51 49 48 47 46 44 43 44 44 46 48 50 49 47 45 44 43 43 42 44 43 41 42 42 41 34
82 83 82 82 82 81 78 75 72 71 68 67 65 63 60 59 55 52 50 48 47 46 48 49 51 51 51 50 48 46 44 44 44 43 41 40 39 38 36 35 34 32 32
80 79 78 77 76 75 74 72 72 72 73 74 72 68 65 60 56 54 54 53 52 50 49 51 52 52 50 47 47 46 46 44 42 41 39 38 36 36 38 35 32 30 30

GFSGL_prec_cthk_114.txt.gz
RH
33 32 33 30 32 39 48 57 58 55 56 56 55 54 42 38 46 61 73 74 81 85 90 92 89 97 97 97 96 96 95 93 87 87 88 89 87 87 82 83 85 84 86
38 43 38 36 34 42 51 59 59 57 60 57 54 57 41 40 49 57 72 84 86 82 86 89 91 95 98 98 97 97 96 95 91 90 92 92 94 95 95 96 91 89 89
46 49 47 42 39 42 54 62 60 61 62 56 56 56 40 40 46 55 69 84 94 95 95 94 92 93 94 97 98 98 97 95 93 92 94 96 95 95 96 95 94 93 89
48 52 50 47 44 44 57 58 63 66 65 57 59 55 39 39 47 59 67 77 87 92 94 98 98 97 96 97 98 99 97 96 97 96 95 94 95 92 94 95 94 94 94
55 56 57 54 51 51 57 60 71 70 63 57 61 55 40 40 48 56 62 66 68 78 92 99 98 99 99 99 98 98 98 97 97 96 95 96 96 94 96 95 93 96 94
65 65 66 66 61 62 64 69 77 75 65 62 66 54 43 43 45 51 57 61 64 66 75 86 95 99 99 99 98 98 97 95 96 97 97 94 93 94 95 94 93 94 94
73 76 76 77 74 74 72 78 84 75 70 70 70 56 49 48 50 48 52 55 59 63 67 71 75 81 85 89 90 89 91 90 86 87 87 87 89 91 92 92 92 92 92
88 86 91 88 84 79 81 85 85 78 77 75 73 57 53 52 52 51 52 55 59 60 61 64 69 72 74 76 79 80 79 80 80 81 82 81 82 85 85 87 89 90 91
91 94 94 95 91 88 89 90 84 80 78 82 73 58 54 54 55 56 57 59 59 61 62 63 66 69 69 71 72 73 74 76 77 80 81 83 85 87 89 91 92 93 94
90 96 96 96 96 93 92 87 85 78 82 75 66 59 57 59 60 61 62 63 65 65 65 68 71 73 74 77 79 81 85 86 86 89 90 90 92 94 96 97 97 98 97
99 99 96 96 98 99 93 91 82 82 78 74 65 60 59 58 60 61 63 67 71 75 74 76 77 80 85 87 89 90 90 92 94 96 97 98 99 98 98 98 98 99 99
98 98 99 97 97 96 96 96 92 80 75 71 67 66 69 76 80 81 82 88 88 89 90 91 91 95 96 98 99 99 99 97 96 96 96 97 98 98 98 98 98 98 98
98 98 99 98 98 99 99 99 95 87 83 83 82 87 89 91 92 93 97 95 93 92 90 88 81 80 84 93 98 99 99 98 95 99 99 99 98 97 95 95 95 96 94
97 98 98 98 99 99 98 98 98 98 99 95 93 94 91 90 89 95 99 97 94 88 97 86 99 96 99 87 88 94 89 87 85 84 84 85 86 85 90 87 84 81 78
98 97 96 98 98 97 98 98 98 98 99 98 97 98 96 99 99 98 98 96 95 95 91 89 89 86 89 88 84 85 89 86 90 96 86 83 81 80 75 71 68 65 57
96 97 96 94 90 91 95 97 97 97 97 97 97 98 97 98 98 98 97 94 95 93 93 92 92 89 88 86 84 83 83 82 80 79 77 73 66 61 56 49 44 40 38
94 96 94 94 91 89 85 82 85 85 89 91 92 90 90 87 85 85 86 87 87 86 83 82 79 77 72 69 66 65 65 63 60 58 55 51 47 44 42 39 37 35 38
81 84 86 88 90 90 87 84 82 81 80 79 81 79 78 74 69 67 66 66 65 64 63 63 63 62 61 61 58 56 55 54 51 47 44 43 41 37 37 38 37 40 39
74 73 76 81 83 82 78 75 75 78 80 80 80 79 76 72 69 68 67 64 63 61 60 58 57 57 57 55 52 48 45 43 42 40 38 38 38 36 35 32 33 36 39
65 64 66 67 67 69 68 67 66 65 65 66 66 63 62 60 59 59 58 57 56 56 56 54 52 47 44 43 42 41 38 38 36 37 37 36 36 35 35 36 38 41 38
68 67 66 66 65 63 62 63 63 62 61 60 59 60 60 61 60 58 58 58 55 55 53 49 47 44 41 39 39 39 37 37 36 34 35 38 39 40 39 39 40 41 40
69 68 67 68 69 68 67 68 66 64 63 62 62 61 58 55 53 50 49 48 48 46 43 40 40 40 41 39 38 38 39 38 38 39 39 40 42 43 43 44 42 44 48
71 70 69 68 69 68 68 68 68 67 66 64 60 56 53 50 49 47 46 45 44 42 41 40 41 42 42 42 41 40 39 40 40 41 42 42 44 45 45 47 45 45 45
77 77 76 76 76 75 73 73 72 70 68 65 61 58 54 54 53 52 49 48 47 47 45 43 41 40 40 43 44 44 44 43 42 43 43 42 43 45 45 44 45 45 43
80 80 80 81 81 82 80 77 75 73 71 70 69 67 65 60 56 55 53 51 49 48 46 45 46 48 50 48 46 45 45 45 44 44 44 44 44 44 43 42 41 38 36
83 83 83 81 78 76 74 72 71 70 71 70 70 70 68 62 56 54 53 53 53 52 52 50 51 51 49 47 46 44 44 47 46 46 45 44 42 40 37 34 32 29 27

GFSGL_prec_cthk_117.txt.gz
RH
30 29 29 28 28 30 35 40 38 45 49 57 60 58 58 62 61 56 48 49 58 70 79 91 96 94 93 97 98 98 97 96 95 94 92 90 90 89 87 83 85 79 78
40 36 33 35 33 34 38 40 41 48 50 59 63 60 59 55 63 60 47 51 60 69 81 82 84 91 95 97 98 98 97 98 96 94 91 94 92 94 93 92 92 90 92
31 32 37 39 46 48 48 42 41 50 51 62 64 63 56 56 65 60 48 52 60 71 81 91 84 87 92 94 96 98 97 96 97 95 95 93 94 93 95 96 93 94 96
32 36 42 44 49 54 53 43 45 51 55 66 63 65 58 58 64 58 49 55 64 71 81 92 96 96 96 94 96 96 96 95 94 95 96 95 96 96 95 96 97 96 96
37 39 45 48 53 54 52 49 52 56 60 68 65 63 62 59 63 56 52 56 62 69 72 78 89 98 99 99 98 98 98 98 97 97 97 98 97 98 98 97 97 97 97
41 44 48 52 55 57 55 52 56 64 65 71 68 66 63 60 65 54 53 56 62 62 65 69 84 96 99 98 99 98 99 99 99 98 98 97 98 98 97 97 97 96 96
46 50 55 57 63 63 61 58 61 73 68 74 75 70 65 64 68 55 54 58 59 62 66 67 73 84 91 98 98 98 98 98 98 99 98 98 97 96 96 95 94 93 91
50 54 61 68 71 70 64 65 72 77 84 80 80 72 71 70 71 56 53 56 55 57 61 63 66 73 78 83 88 92 92 94 95 95 91 88 88 88 89 89 89 88 87
55 61 69 77 86 88 89 85 85 83 87 89 86 79 77 75 74 59 56 56 55 58 59 60 61 63 66 70 74 77 79 83 85 85 84 83 83 82 83 84 87 89 92
67 72 77 85 93 98 93 95 96 89 86 90 89 87 83 79 76 61 60 60 59 60 62 62 63 67 67 67 69 69 71 72 73 76 77 77 80 83 87 91 95 96 98
80 85 89 90 98 98 99 98 94 98 95 98 90 88 84 85 76 65 63 64 65 65 65 66 68 69 71 74 78 80 84 88 90 92 94 96 97 97 98 98 99 99 99
89 91 96 99 99 98 98 99 98 99 98 97 97 89 89 84 80 70 64 64 64 65 68 70 75 82 86 91 92 91 92 94 95 96 97 97 98 98 99 99 99 99 98
96 97 98 98 99 98 98 99 99 98 95 95 92 93 89 86 80 72 72 76 78 79 79 83 90 94 95 96 94 91 92 96 98 98 98 99 98 96 91 90 90 90 86
93 97 97 98 98 98 99 98 98 99 95 93 94 92 87 90 92 86 85 88 92 92 89 92 95 97 97 94 93 94 98 91 88 93 94 94 94 92 88 90 92 87 80
96 97 97 98 98 98 98 98 99 98 99 98 98 96 98 97 96 98 98 98 97 94 98 98 98 98 98 96 98 97 97 96 95 94 91 90 89 88 81 75 70 66 61
93 96 97 97 98 97 98 98 98 98 98 98 98 98 98 98 98 97 96 97 98 97 99 98 97 98 98 97 98 98 97 94 92 89 84 79 74 68 62 56 50 42 37
88 91 96 97 97 97 97 96 97 97 98 97 97 98 98 98 97 98 98 97 97 97 93 94 96 96 94 94 91 85 78 73 69 64 60 56 51 46 42 38 34 32 30
77 84 90 93 95 96 97 96 96 97 96 97 97 97 97 96 95 92 88 87 89 86 79 74 73 70 68 67 65 63 60 58 55 51 45 40 37 34 33 33 33 33 33
69 71 76 84 88 93 93 90 88 90 91 93 93 94 92 89 86 82 79 77 74 72 72 68 65 63 61 59 55 52 47 44 40 39 38 37 36 35 34 35 36 35 34
69 70 71 73 74 75 75 76 78 80 78 77 77 78 80 77 74 73 71 68 64 63 62 60 58 54 48 44 43 41 39 37 35 35 35 37 38 35 32 32 33 34 36
70 69 68 71 72 73 74 73 73 73 71 69 68 69 68 65 62 59 56 55 52 48 45 43 40 38 36 35 36 37 36 35 35 37 35 34 35 34 35 37 36 37 35
73 73 74 73 70 68 69 70 72 72 71 68 65 60 56 53 51 49 47 45 44 43 43 41 40 40 41 40 40 39 39 38 37 37 37 38 38 37 36 37 38 37 37
69 70 72 73 72 72 72 72 70 67 65 62 58 55 53 50 49 48 47 47 46 45 44 44 44 43 42 44 44 43 40 39 38 38 39 39 39 40 39 39 39 40 40
71 72 71 71 72 72 72 72 72 69 66 62 60 58 56 53 51 50 50 49 49 48 49 50 48 46 44 43 42 42 41 41 41 41 41 41 41 39 38 40 41 43 42
73 74 74 74 73 71 70 69 67 65 65 63 61 58 55 53 51 50 50 49 48 47 47 47 47 46 46 47 44 42 42 42 42 42 40 38 38 38 40 41 42 42 40
79 79 79 78 76 74 72 71 71 70 70 69 67 64 60 56 53 51 48 47 46 46 48 47 45 46 45 44 43 44 43 42 41 42 41 42 43 43 42 40 36 33 30

GFSGL_prec_cthk_123.txt.gz
RH
70 65 60 56 55 50 45 42 40 38 36 31 30 36 40 36 39 44 51 56 58 63 69 72 68 48 54 66 80 91 95 96 95 99 98 98 98 96 96 94 93 91 82
61 54 49 44 40 38 39 41 38 36 38 35 30 36 38 39 39 44 57 55 58 62 68 72 61 51 53 63 74 88 93 94 95 98 98 98 96 95 97 96 95 94 88
48 46 42 36 35 35 36 38 38 42 41 38 35 38 39 42 37 47 59 56 58 63 68 68 60 53 53 65 78 88 90 89 97 97 98 98 96 95 95 98 94 91 90
46 39 33 30 33 32 34 38 40 47 47 40 37 41 41 40 40 50 57 64 60 64 67 62 65 51 57 69 78 89 96 89 92 95 97 98 98 95 96 97 97 94 94
37 34 34 35 35 36 38 36 39 48 52 50 51 53 45 40 43 52 58 67 63 62 61 61 66 53 61 70 76 80 89 96 94 96 97 98 96 96 95 98 98 98 97
45 42 40 35 30 33 35 37 39 43 52 60 57 46 48 44 50 56 72 70 62 59 59 65 67 55 60 70 75 75 89 97 98 98 98 97 96 97 97 97 95 95 98
42 42 40 39 35 30 31 35 44 47 50 51 55 53 52 47 60 65 66 65 61 60 60 64 69 57 61 67 72 79 86 97 98 97 97 96 95 94 95 96 97 98 97
43 40 37 38 35 39 39 41 48 55 55 57 54 53 54 49 63 65 78 63 63 59 61 66 70 58 59 63 67 77 82 92 96 98 98 97 97 98 97 96 97 98 98
44 43 42 39 37 37 40 43 48 53 53 59 56 57 60 68 68 86 78 66 65 64 65 67 71 56 62 69 72 72 78 88 90 94 98 99 99 98 98 98 98 99 98
49 47 47 45 44 43 46 48 54 56 64 61 60 59 60 71 73 78 71 75 71 66 64 71 72 57 64 66 68 73 77 81 86 93 94 94 95 97 98 98 98 97 95
55 54 52 51 49 48 50 55 61 67 65 69 67 65 76 85 96 97 95 80 73 70 69 73 73 60 62 66 67 70 75 75 78 80 81 83 86 87 86 86 86 86 87
57 58 57 56 54 53 57 63 71 71 75 82 85 74 80 84 91 97 94 85 78 75 73 75 76 65 60 64 66 68 71 73 75 76 77 81 85 87 89 91 94 96 98
54 60 62 61 62 60 62 69 76 80 83 90 98 98 99 98 99 98 95 92 82 76 82 79 79 77 71 72 72 73 75 77 79 81 83 89 91 90 92 97 98 99 99
57 65 69 71 74 71 73 79 84 89 88 96 99 99 98 98 97 98 98 95 85 84 84 86 84 82 84 78 77 79 81 83 86 88 90 96 96 96 97 99 99 99 99
61 65 73 79 87 85 84 90 93 95 98 98 97 98 97 98 97 95 97 96 92 91 91 88 86 84 84 86 91 90 88 90 94 93 93 95 96 98 99 98 97 98 97
64 67 74 81 89 94 94 96 97 97 97 98 97 98 99 98 99 99 98 98 99 98 98 95 94 94 96 96 96 97 98 99 99 99 99 98 98 98 98 98 97 94 91
66 65 70 84 91 95 97 96 97 97 97 97 97 97 98 98 98 98 98 98 99 99 98 99 98 98 98 98 98 98 98 98 98 98 98 97 98 98 96 89 82 72 60
69 69 69 70 83 94 96 96 96 96 97 97 97 97 97 97 97 97 98 98 98 98 98 98 98 98 98 98 97 98 97 97 98 97 97 93 87 81 72 61 54 48 43
74 73 72 72 74 77 84 93 96 96 96 97 97 97 97 97 97 97 96 97 97 97 98 97 97 97 97 96 96 95 92 87 83 77 70 65 62 58 53 47 42 37 33
74 73 73 75 75 75 76 80 86 92 95 96 96 96 97 97 97 97 97 97 97 95 95 93 92 92 92 90 88 85 79 73 68 64 58 51 46 40 36 35 36 35 33
77 77 76 75 74 73 74 75 76 78 84 84 86 85 83 85 89 91 90 89 90 91 89 86 84 81 77 72 68 64 60 54 50 47 46 46 45 43 42 39 36 35 35
78 78 76 75 74 73 71 68 67 67 68 69 72 73 72 71 70 69 68 67 67 66 65 63 62 61 59 56 53 51 49 46 44 41 39 38 38 37 37 37 36 36 37
81 79 77 76 74 73 71 68 64 60 58 58 60 60 62 62 63 63 62 62 62 62 62 61 59 55 52 49 48 47 46 45 44 45 45 43 40 37 36 37 36 35 34
84 83 81 78 76 73 69 65 61 58 56 54 53 52 51 51 52 53 54 56 58 58 58 57 56 55 55 53 52 51 49 46 44 43 40 39 39 38 36 35 33 33 34
83 84 83 82 79 77 73 70 67 62 59 57 55 54 53 51 49 48 48 49 51 51 51 50 50 49 48 47 45 44 43 42 42 42 41 38 36 36 36 36 35 34 34
91 88 86 86 86 83 81 78 75 72 69 66 63 60 58 57 54 51 51 51 50 50 50 50 50 49 48 47 47 45 43 41 40 40 40 39 39 38 37 36 35 36 36

GFSGL_prec_cthk_126.txt.gz
RH
72 72 69 65 63 61 58 54 52 51 50 48 48 47 46 46 44 38 39 43 40 38 44 54 60 64 66 72 66 51 56 72 84 90 93 92 97 98 98 96 96 96 94
73 73 69 68 64 61 56 52 46 39 36 36 39 41 39 44 46 39 39 40 39 40 46 53 59 63 66 71 64 53 53 66 77 87 93 93 95 98 99 98 98 98 95
74 69 66 61 55 51 47 41 37 33 33 33 35 36 35 40 45 42 40 40 42 42 49 55 59 62 66 67 62 55 52 66 80 87 89 90 95 96 98 99 98 98 95
62 61 56 48 43 40 36 32 30 33 34 35 41 45 45 46 46 47 46 46 45 46 55 58 62 63 66 66 61 54 55 70 78 90 90 91 94 96 96 98 98 97 96
65 54 45 41 41 36 33 28 28 29 33 36 39 48 49 50 50 52 54 49 47 48 59 62 62 70 66 61 67 53 58 71 76 87 95 89 91 94 97 96 98 97 99
53 49 42 39 37 36 34 30 29 28 34 38 41 44 48 53 48 53 54 50 47 52 61 71 68 69 64 62 67 57 60 67 71 75 91 94 96 98 98 97 97 98 98
44 41 40 37 36 34 33 35 35 32 32 35 44 47 49 52 57 60 60 57 53 55 65 74 66 66 63 66 67 61 61 66 67 78 94 98 98 97 97 97 96 97 98
44 42 39 37 34 35 32 32 33 35 37 42 45 53 50 54 56 59 60 56 58 63 76 72 65 65 68 65 68 65 63 64 63 76 87 97 98 99 97 96 96 98 98
46 44 41 40 39 36 36 36 37 38 38 47 54 56 60 53 51 56 57 60 64 72 78 72 64 68 68 67 72 67 62 70 69 74 85 90 98 99 98 98 98 98 97
47 46 47 46 43 41 39 38 41 45 46 49 53 52 57 54 53 55 60 58 76 81 77 76 65 71 70 68 74 66 63 68 69 76 83 88 90 96 98 98 98 98 98
47 48 47 47 47 46 44 43 47 50 50 51 58 63 64 62 60 75 63 73 71 73 91 85 71 72 69 68 75 69 68 71 71 74 81 85 92 98 95 95 96 96 97
47 47 46 50 51 50 47 46 50 55 57 61 65 68 71 69 69 67 74 79 81 77 85 79 74 74 74 71 80 74 66 67 69 75 77 80 84 86 88 89 87 85 84
50 50 51 52 56 54 52 50 53 60 64 69 78 80 77 78 73 78 89 99 93 99 98 87 83 82 79 77 82 78 68 68 69 71 72 74 78 82 82 90 94 94 94
53 52 53 56 60 61 59 59 58 61 67 75 78 83 88 97 95 97 99 95 96 98 98 92 90 85 83 83 84 83 78 73 76 77 80 82 84 87 90 92 98 99 98
56 55 56 62 64 68 67 69 66 68 74 78 83 86 87 96 99 97 98 99 97 97 99 97 92 92 88 90 90 87 84 84 85 85 88 88 90 92 94 96 98 98 96
61 60 62 62 64 70 76 77 81 81 86 89 90 92 91 98 98 99 98 98 98 99 98 98 98 96 94 93 94 92 89 90 95 93 95 95 96 98 98 98 98 98 98
71 66 66 64 63 66 82 86 87 89 91 95 96 96 97 97 98 98 98 98 98 98 98 99 99 99 98 99 98 96 97 99 97 97 97 99 98 98 98 98 98 97 97
76 72 71 69 67 67 70 81 91 95 95 96 97 97 97 97 97 97 97 98 98 98 98 98 98 98 98 98 98 98 98 98 98 98 98 97 97 97 97 95 89 82 74
76 74 73 73 73 73 72 73 77 88 95 97 97 96 96 96 97 97 97 97 97 97 97 97 97 98 97 97 97 97 97 97 97 97 97 94 89 83 76 68 64 63 61
81 78 77 75 74 73 72 72 72 74 80 87 93 96 97 97 97 97 97 97 97 97 97 97 97 97 97 96 96 95 94 91 87 81 75 73 70 68 66 64 60 53 46
85 82 79 77 77 76 73 70 67 65 65 69 74 80 84 90 94 96 96 96 97 97 97 97 96 96 93 90 87 83 79 77 74 71 68 65 59 56 54 52 50 49 46
89 86 83 81 79 76 74 70 66 64 62 60 61 66 69 70 74 74 75 78 80 81 81 80 79 78 77 76 75 72 70 68 66 64 60 57 54 52 50 47 44 41 41
90 89 88 85 82 77 73 70 66 63 61 59 57 56 55 58 62 65 67 68 69 69 69 69 68 68 68 67 66 64 60 58 56 55 53 51 49 47 46 45 44 44 43
89 88 87 87 86 83 80 76 72 66 62 60 57 55 54 53 53 53 54 55 58 59 61 61 61 61 62 61 61 60 59 57 56 55 53 51 50 48 47 46 43 39 35
90 89 89 88 86 85 84 81 76 73 70 66 63 60 59 56 54 53 52 51 51 49 49 48 48 49 50 50 50 50 49 49 49 49 49 49 48 46 42 38 36 36 36
75 81 85 87 86 85 82 80 79 79 77 75 72 69 66 64 63 61 59 57 54 52 50 49 48 47 46 46 45 46 47 47 47 46 44 43 42 41 39 38 38 37 36